Regional Weather Roundup
Issued by NWS

Home | Current Version | Previous Version | Graphics & Text | Print | Product List | Glossary Off
Versions: 1 2 3 4 5 6 7 8 9 10 11 12 13 14 15 16 17 18 19 20 21 22 23 24 25 26 27 28 29 30 31 32 33 34 35 36 37 38 39 40 41 42 43 44 45 46 47 48 49 50

000
ASUS43 KMKX 050359
RWRWI

WISCONSIN REGIONAL WEATHER ROUNDUP
NATIONAL WEATHER SERVICE MILWAUKEE/SULLIVAN WI
1000 PM CST WED MAR 04 2015

NOTE: "FAIR" INDICATES FEW OR NO CLOUDS BELOW 12,000 FEET WITH NO
SIGNIFICANT WEATHER AND/OR OBSTRUCTIONS TO VISIBILITY.

WIZ001-002-006>008-014>016-023>028-050500-
NORTHWEST WISCONSIN

CITY           SKY/WX    TMP DP  RH WIND       PRES   REMARKS
SUPERIOR ARPT  CLEAR     -2 -14  56 W7        30.36R WCI -16
ASHLAND        CLEAR     -5 -17  56 W8        30.33R WCI -20
HAYWARD        CLEAR    -13 -19  75 CALM      30.31R
SIREN          CLEAR     -6 -16  64 NW5       30.36R WCI -18
CUMBERLAND     CLEAR     -4 -17  54 W6        30.32R WCI -16
RICE LAKE      CLEAR     -8 -16  67 CALM      30.37R
CHETEK         CLEAR     -6 -14  68 MISG      30.36R
LADYSMITH      CLEAR     -5 -13  67 SW5       30.34R WCI -16
EAU CLAIRE     NOT AVBL
MENOMONIE      CLEAR      1 -12  54 W7        30.40R WCI -11
NEW RICHMOND   CLEAR     -3 -14  60 W7        30.38R WCI -17
OSCEOLA        CLEAR     -3 -13  61 W7        30.41R WCI -16
$$

WIZ003>005-009-010-017-018-050500-
NORTH CENTRAL WISCONSIN

CITY           SKY/WX    TMP DP  RH WIND       PRES   REMARKS
MANITOWISH WTR CLEAR    -10 -17  72 CALM      30.21R
ARBOR VITAE    CLEAR     -5 -13  67 CALM      30.22R
WOODRUFF       CLEAR     -5 -13  67 CALM      30.22R
RHINELANDER    CLEAR     -7 -15  68 W6        30.23R WCI -20
EAGLE RIVER    CLEAR    -12 -19  71 W5        30.20R WCI -24
LAND O LAKES   PTCLDY   -12 -18  75 SW3       30.20R
PHILLIPS       CLEAR    -10 -15  78 CALM      30.27R
TOMAHAWK       CLEAR    -14 -19  76 CALM      30.26R
MEDFORD        CLEAR     -6 -15  65 NW7       30.26R WCI -20
MERRILL        CLEAR     -2 -13  58 CALM      30.26S
$$

WIZ029-030-035-036-043>047-050500-
CENTRAL WISCONSIN

CITY           SKY/WX    TMP DP  RH WIND       PRES   REMARKS
WAUSAU         CLEAR      0 -12  57 NW7       30.28R WCI -13
MOSINEE        CLEAR      0 -11  60 NW6       30.30R WCI -12
MARSHFIELD     CLEAR     -1 -12  59 NW8       30.31R WCI -15
STEVENS POINT  CLEAR      2 -13  49 NW5       30.30R WCI  -8
WAUPACA        PTCLDY     9 -10  42 NW8       30.30R WCI  -4
WAUTOMA        NOT AVBL
WISC RAPIDS    CLEAR      3 -12  49 NW8       30.33R WCI -10
CAMP DOUGLAS   NOT AVBL
$$

WIZ011>013-019>022-031-037>040-048>050-050500-
NORTHEAST WISCONSIN

CITY           SKY/WX    TMP DP  RH WIND       PRES   REMARKS
ANTIGO         CLEAR     -3 -12  64 NW7       30.22F WCI -16
SHAWANO        PTCLDY     6 -12  43 CALM      30.30S
OCONTO         CLEAR      4 -10  51 CALM      30.31R
STURGEON BAY   CLEAR      3 -11  51 NW9       30.30S WCI -11
GREEN BAY      CLEAR      4  -9  55 NW6       30.32R WCI  -7
MANITOWOC      NOT AVBL
APPLETON       CLEAR      7 -11  43 NW9       30.31R WCI  -7
CLINTONVILLE   PTCLDY     3 -11  51 NW6       30.32R WCI  -8
OSHKOSH        PTCLDY     7  -9  48 NW9       30.32R WCI  -7
$$

WIZ032>034-041-042-053>061-050500-
SOUTHWEST WISCONSIN

CITY           SKY/WX    TMP DP  RH WIND       PRES   REMARKS
LA CROSSE      PTCLDY     7  -6  55 W9        30.40R WCI  -7
SPARTA         PTCLDY     7  -6  54 NW8       30.36R WCI  -5
VIROQUA        PTCLDY     5  -4  66 NW12      30.32R WCI -11
BOSCOBEL       PTCLDY     7  -3  64 W3        30.40R
PRAIRIE DU CHI PTCLDY     9  -4  55 NW10G18   30.40R WCI  -6
PLATTEVILLE    CLEAR      5  -3  69 W7        30.35R WCI  -7
$$

WIZ056-057-062-063-064-067-068-050500-
SOUTH CENTRAL WISCONSIN

CITY           SKY/WX    TMP DP  RH WIND       PRES   REMARKS
REEDSBURG      MOCLDY     7  -5  57 W6        30.33R WCI  -3
BARABOO/DELLS  MOCLDY     7  -6  53 CALM      30.32R
LONE ROCK      NOT AVBL
MINERAL POINT  FLURRIES   9  -4  56 W7        30.32R WCI  -3
MADISON        PTCLDY     9  -5  53 NW6       30.34R WCI  -1
MIDDLETON      PTCLDY    11  -5  48 W7        30.33R WCI   0
WATERTOWN      PTCLDY    10  -5  51 NW8       30.31R WCI  -2
MONROE         CLEAR      9   0  66 W12       30.32R WCI  -6
JANESVILLE     PTCLDY     9  -4  56 W5        30.35R WCI   0
$$

WIZ051-052-058>065-066-070>072-050500-
SOUTHEAST WISCONSIN

CITY           SKY/WX    TMP DP  RH WIND       PRES   REMARKS
MILWAUKEE      MOCLDY    12  -8  40 N12       30.32R WCI  -2
WAUKESHA       CLEAR      9  -6  52 NW6       30.30F WCI  -1
MILWAUKEE/TIMM CLEAR     10  -8  44 NW6       30.31F WCI   1
RACINE         PTCLDY    10  -7  46 W3        30.34R
BURLINGTON     PTCLDY     2 -11  55 NW7       30.30F WCI -11
KENOSHA        PTCLDY     3  -9  57 W6        30.33R WCI  -8
FOND DU LAC    PTCLDY     7  -8  50 NW9       30.33R WCI  -7
SHEBOYGAN      PTCLDY     8  -9  45 NW10      30.31R WCI  -6
WEST BEND      PTCLDY     9  -8  47 NW6       30.30R WCI  -1
JUNEAU         PTCLDY     8  -6  52 NW7       30.31S WCI  -3
$$

LSZ147-162-050500-
LAKE SUPERIOR

STATION/POSITION TIME  TEMP    WIND        PRES    WAVE
                       AIR SEA DIR/SP/G            HT/PER
                 (UTC) (F)     (DEG/KT/KT) (MB)    (FT/S)
DEVILS ISLAND    0300    6     300/ 16/ 20 1027.6R
PORT WING        0300    5     300/ 12/ 18 1026.8
SAXON HARBOR     0300   -1     230/  5/  9 1026.1R
$$

LMZ867-665-643>646-050500-
LAKE MICHIGAN

STATION/POSITION TIME  TEMP    WIND        PRES    WAVE
                       AIR SEA DIR/SP/G            HT/PER
                 (UTC) (F)     (DEG/KT/KT) (MB)    (FT/S)
NORTHPORT PIER   0311    9     320/ 18/ 25 1025.4R
KEWAUNEE LAKESHO 0300    8     330/  4/  8 1024.4R
SHEBOYGAN LAKESH 0200   11     320/ 10/ 12 1026.1R
PORT WASHINGTON  0300   11     320/  3/  6 1027.4R
MILWAUKEE LAKESH 0300   15     310/  5/  9   N/A
KENOSHA   LAKESH 0300   13     290/  6/  8 1026.4R
$$

TC  - TEMPERATURE IN CELSIUS
VSB - VISIBILITY IN STATUTE MILES
WCI - WIND CHILL INDEX
HX  - HEAT INDEX



USA.gov is the U.S. government's official web portal to all federal, state and local government web resources and services.